Weather History for Stigler, OK

Change the Weather History Date:

Monday, December 3, 2012

  Actual Average (KJSV) Record (KJSV)
Temperature  
Mean Temperature 70 °F -  
Max Temperature 77 °F 56 °F 86 °F (2004)
Min Temperature 64 °F 33 °F 19 °F (1989)
Cooling Degree Days 6    
Growing Degree Days 20 (Base 50)    
Moisture  
Dew Point 55 °F    
Average Humidity 59    
Maximum Humidity 78    
Minimum Humidity 39    
Precipitation  
Precipitation 0.00 in - - ()
Sea Level Pressure  
Sea Level Pressure 29.94 in    
Wind  
Wind Speed 14 mph (SSW)    
Max Wind Speed 25 mph    
Max Gust Speed 36 mph    
Visibility 10 miles    
Events      
Averages and records for this station are not official NWS values.
T = Trace of Precipitation, MM = Missing Value Source: NWS Daily Summary

Daily Weather History Graph

Daily Weather History Graph

Search for Another Location

Airport:

Trip Planner

Search our weather history database for the weather conditions in past years. The results will help you decide how hot, cold, wet, or windy it might be!

Date:

Astronomy

Dec. 03, 2012 Rise Set
Actual Time 7:12 AM CST 5:07 PM CST
Civil Twilight 6:44 AM CST 5:35 PM CST
Nautical Twilight 6:13 AM CST 6:07 PM CST
Astronomical Twilight 5:42 AM CST 6:37 PM CST
Moon 9:49 PM CST (12/3) 10:41 AM CST (12/3)
Length of Visible Light 10h 50m
Length of Day
9h 54m
Waning Gibbous, 78% of the Moon is Illuminated
Dec 3
Waning Gibbous
Dec 6
Last Quarter
Dec 13
New
Dec 19
First Quarter
Dec 28
Full

Hourly Weather History & Observations

Time (CST) Temp. Dew Point Humidity Pressure Visibility Wind Dir Wind Speed Gust Speed Precip Events Conditions
12:15 AM 69.8 °F 55.4 °F 60% 29.99 in 10.0 mi SSW 9.2 mph - N/A   Partly Cloudy
12:35 AM 71.6 °F 55.4 °F 57% 29.98 in 10.0 mi South 15.0 mph 19.6 mph N/A   Mostly Cloudy
12:55 AM 71.6 °F 55.4 °F 57% 29.98 in 10.0 mi South 13.8 mph 20.7 mph N/A   Partly Cloudy
1:15 AM 71.6 °F 57.2 °F 60% 29.98 in 10.0 mi SSW 15.0 mph 24.2 mph N/A   Clear
1:35 AM 71.6 °F 57.2 °F 60% 29.98 in 10.0 mi SSW 19.6 mph 25.3 mph N/A   Partly Cloudy
1:55 AM 71.6 °F 55.4 °F 57% 29.98 in 10.0 mi SSW 16.1 mph 26.5 mph N/A   Scattered Clouds
2:15 AM 71.6 °F 55.4 °F 57% 29.98 in 10.0 mi South 18.4 mph 26.5 mph N/A   Mostly Cloudy
2:35 AM 69.8 °F 55.4 °F 60% 29.98 in 10.0 mi SSW 13.8 mph 23.0 mph N/A   Overcast
2:55 AM 69.8 °F 57.2 °F 64% 29.98 in 10.0 mi SSW 13.8 mph 21.9 mph N/A   Overcast
3:15 AM 68.0 °F 57.2 °F 68% 29.98 in 10.0 mi SSW 16.1 mph 25.3 mph N/A   Overcast
3:35 AM 68.0 °F 57.2 °F 68% 29.97 in 10.0 mi SSW 17.3 mph 23.0 mph N/A   Overcast
3:55 AM 68.0 °F 57.2 °F 68% 29.97 in 10.0 mi SSW 15.0 mph 25.3 mph N/A   Overcast
4:35 AM 68.0 °F 57.2 °F 68% 29.96 in 10.0 mi SSW 13.8 mph 18.4 mph N/A   Overcast
4:55 AM 66.2 °F 57.2 °F 73% 29.96 in 10.0 mi SSW 10.4 mph 20.7 mph N/A   Overcast
5:15 AM 66.2 °F 57.2 °F 73% 29.95 in 10.0 mi SSW 10.4 mph - N/A   Overcast
5:35 AM 66.2 °F 55.4 °F 68% 29.95 in 10.0 mi South 10.4 mph 17.3 mph N/A   Overcast
5:55 AM 66.2 °F 55.4 °F 68% 29.96 in 10.0 mi SSW 12.7 mph 18.4 mph N/A   Overcast
6:15 AM 66.2 °F 55.4 °F 68% 29.95 in 10.0 mi SSW 13.8 mph 18.4 mph N/A   Overcast
6:35 AM 66.2 °F 55.4 °F 68% 29.96 in 10.0 mi South 10.4 mph 18.4 mph N/A   Overcast
6:55 AM 64.4 °F 55.4 °F 73% 29.95 in 10.0 mi SSW 13.8 mph 19.6 mph N/A   Scattered Clouds
7:35 AM 66.2 °F 55.4 °F 68% 29.96 in 10.0 mi SSW 10.4 mph 20.7 mph N/A   Clear
7:55 AM 66.2 °F 55.4 °F 68% 29.96 in 10.0 mi South 13.8 mph 21.9 mph N/A   Mostly Cloudy
8:15 AM 66.2 °F 55.4 °F 68% 29.97 in 10.0 mi SSW 10.4 mph 17.3 mph N/A   Mostly Cloudy
8:35 AM 68.0 °F 55.4 °F 64% 29.96 in 9.0 mi South 15.0 mph 21.9 mph N/A   Partly Cloudy
8:55 AM 68.0 °F 55.4 °F 64% 29.97 in 10.0 mi SSW 15.0 mph 23.0 mph N/A   Clear
9:15 AM 69.8 °F 55.4 °F 60% 29.97 in 10.0 mi SSW 17.3 mph 27.6 mph N/A   Clear
9:35 AM 71.6 °F 55.4 °F 57% 29.98 in 9.0 mi SSW 18.4 mph 24.2 mph N/A   Clear
9:55 AM 71.6 °F 55.4 °F 57% 29.98 in 9.0 mi SSW 17.3 mph 27.6 mph N/A   Clear
10:15 AM 71.6 °F 55.4 °F 57% 29.98 in 10.0 mi SSW 19.6 mph 33.4 mph N/A   Clear
10:35 AM 73.4 °F 55.4 °F 53% 29.98 in 9.0 mi SSW 19.6 mph 27.6 mph N/A   Clear
10:55 AM 73.4 °F 53.6 °F 50% 29.97 in 9.0 mi SSW 20.7 mph 31.1 mph N/A   Clear
11:35 AM 73.4 °F 53.6 °F 50% 29.95 in 9.0 mi SW 23.0 mph 35.7 mph N/A   Scattered Clouds
11:55 AM 75.2 °F 53.6 °F 47% 29.95 in 9.0 mi SSW 19.6 mph 33.4 mph N/A   Partly Cloudy
12:15 PM 75.2 °F 53.6 °F 47% 29.93 in 9.0 mi SSW 20.7 mph 32.2 mph N/A   Scattered Clouds
12:35 PM 75.2 °F 53.6 °F 47% 29.92 in 8.0 mi SSW 20.7 mph 31.1 mph N/A   Scattered Clouds
12:55 PM 75.2 °F 53.6 °F 47% 29.90 in 9.0 mi SSW 21.9 mph 29.9 mph N/A   Scattered Clouds
1:15 PM 77.0 °F 53.6 °F 44% 29.90 in 9.0 mi SSW 20.7 mph 31.1 mph N/A   Mostly Cloudy
1:35 PM 77.0 °F 53.6 °F 44% 29.88 in 9.0 mi SSW 21.9 mph 28.8 mph N/A   Partly Cloudy
1:55 PM 77.0 °F 51.8 °F 41% 29.87 in 10.0 mi SSW 19.6 mph 32.2 mph N/A   Clear
2:15 PM 77.0 °F 51.8 °F 41% 29.88 in 9.0 mi SSW 23.0 mph 31.1 mph N/A   Clear
2:35 PM 77.0 °F 51.8 °F 41% 29.87 in 9.0 mi SW 21.9 mph 33.4 mph N/A   Clear
2:55 PM 77.0 °F 51.8 °F 41% 29.87 in 9.0 mi SW 25.3 mph 32.2 mph N/A   Clear
3:15 PM 77.0 °F 51.8 °F 41% 29.86 in 10.0 mi SSW 19.6 mph 31.1 mph N/A   Clear
3:35 PM 77.0 °F 50.0 °F 39% 29.86 in 10.0 mi SSW 12.7 mph 27.6 mph N/A   Clear
3:55 PM 77.0 °F 51.8 °F 41% 29.86 in 10.0 mi South 15.0 mph 23.0 mph N/A   Clear
4:15 PM 75.2 °F 51.8 °F 44% 29.87 in 9.0 mi SSW 15.0 mph 26.5 mph N/A   Clear
4:35 PM 75.2 °F 51.8 °F 44% 29.88 in 9.0 mi South 10.4 mph 24.2 mph N/A   Clear
4:55 PM 73.4 °F 53.6 °F 50% 29.88 in 10.0 mi South 11.5 mph 17.3 mph N/A   Clear
5:15 PM 73.4 °F 53.6 °F 50% 29.88 in 10.0 mi South 13.8 mph - N/A   Clear
5:35 PM 73.4 °F 53.6 °F 50% 29.89 in 10.0 mi South 11.5 mph - N/A   Partly Cloudy
5:55 PM 71.6 °F 53.6 °F 53% 29.90 in 10.0 mi South 6.9 mph - N/A   Mostly Cloudy
6:15 PM 71.6 °F 53.6 °F 53% 29.91 in 10.0 mi South 5.8 mph - N/A   Overcast
6:35 PM 71.6 °F 53.6 °F 53% 29.92 in 10.0 mi SSE 5.8 mph - N/A   Overcast
6:55 PM 71.6 °F 55.4 °F 57% 29.93 in 8.0 mi South 12.7 mph - N/A   Overcast
7:15 PM 71.6 °F 59.0 °F 64% 29.94 in 10.0 mi South 11.5 mph 16.1 mph N/A   Overcast
7:35 PM 71.6 °F 59.0 °F 64% 29.95 in 10.0 mi South 8.1 mph 16.1 mph N/A   Overcast
7:55 PM 69.8 °F 59.0 °F 68% 29.96 in 10.0 mi South 6.9 mph - N/A   Overcast
8:15 PM 68.0 °F 59.0 °F 73% 29.96 in 10.0 mi SSE 8.1 mph - N/A   Overcast
8:35 PM 68.0 °F 59.0 °F 73% 29.96 in 10.0 mi SSE 9.2 mph - N/A   Mostly Cloudy
8:55 PM 66.2 °F 59.0 °F 78% 29.96 in 7.0 mi SSE 8.1 mph - N/A   Scattered Clouds
9:15 PM 66.2 °F 59.0 °F 78% 29.96 in 9.0 mi SSE 9.2 mph - N/A   Partly Cloudy
9:35 PM 66.2 °F 59.0 °F 78% 29.95 in 10.0 mi South 11.5 mph - N/A   Clear
9:55 PM 66.2 °F 59.0 °F 78% 29.95 in 10.0 mi South 9.2 mph 17.3 mph N/A   Clear
10:35 PM 68.0 °F 59.0 °F 73% 29.95 in 10.0 mi South 11.5 mph 19.6 mph N/A   Clear
10:55 PM 68.0 °F 59.0 °F 73% 29.95 in 10.0 mi South 11.5 mph - N/A   Clear
11:15 PM 66.2 °F 59.0 °F 78% 29.96 in 10.0 mi South 8.1 mph - N/A   Partly Cloudy
11:55 PM 66.2 °F 59.0 °F 78% 29.96 in 10.0 mi South 4.6 mph - N/A   Mostly Cloudy